Location: Drocourt
(49.0571°N, 1.7669°E)
Time: 13:48:36
(UTC+00:00)

SR - Pass Details

Date: 21 April 2024
Orbit: 579 x 859 km, 66.7° (Epoch: 28 May)

Event Time Altitude Azimuth Distance (km) Brightness Sun altitude
Rises 00:36:19 0° 182° (S) 3,357 - -28.2°
Reaches altitude 10° 00:39:05 10° 172° (S) 2,394 - -28.1°
Maximum altitude 00:43:46 29° 113° (ESE) 1,390 - -27.9°
Exits shadow 00:44:25 29° 100° (E) 1,407 ? -27.9°
Drops below altitude 10° 00:48:13 10° 54° (NE) 2,259 ? -27.7°
Sets 00:50:45 0° 44° (NE) 3,137 ? -27.6°
